Waarnemingen

Advertentie
Mijn weer
Strasbourg, Frankrijk (7190): temperatuur & dauwpunt: 17.07.2017 08:00:00 - 23.07.2017 08:00:00 (CEST)Strasbourg, Frankrijk (7190): temperatuur 5cm: 17.07.2017 08:00:00 - 23.07.2017 08:00:00 (CEST)Strasbourg, Frankrijk (7190): temperatuur -20cm & temperatuur -100cm: 17.07.2017 08:00:00 - 23.07.2017 08:00:00 (CEST)Strasbourg, Frankrijk (7190): windsnelheid & windstoten: 17.07.2017 08:00:00 - 23.07.2017 08:00:00 (CEST)Strasbourg, Frankrijk (7190): windrichting: 17.07.2017 08:00:00 - 23.07.2017 08:00:00 (CEST)Strasbourg, Frankrijk (7190): luchtdruk: 17.07.2017 08:00:00 - 23.07.2017 08:00:00 (CEST)Strasbourg, Frankrijk (7190): zicht: 17.07.2017 08:00:00 - 23.07.2017 08:00:00 (CEST)Strasbourg, Frankrijk (7190): Zonneschijnduur: 17.07.2017 08:00:00 - 23.07.2017 08:00:00 (CEST)Strasbourg, Frankrijk (7190): neerslag: 17.07.2017 08:00:00 - 23.07.2017 08:00:00 (CEST)
Datum & Tijd tt [°C] td [°C] tt 5cm [°C] tt -20cm [°C] tt -100cm [°C] ff [km/u] ff [kn] fx [km/u] fx [kn] dd ppp [hPa] vv [km] sd [min] rr [mm]
23.07.2017 08:00:00 19,5 12,0 18,4 24,9 22,0 9 5 33 18 ZZW 1017,4 13 19 0,0
23.07.2017 07:00:00 18,7 11,7 18,0 25,2 22,0 16 8 37 20 ZZW 1016,9 52 11 0,0
23.07.2017 06:00:00 18,9 13,1 17,8 25,4 22,0 21 11 32 17 WZW 1016,5 58 0 0,0
23.07.2017 05:00:00 18,7 15,0 17,1 25,7 22,0 11 6 24 13 ZW 1015,9 60 0 0,0
23.07.2017 04:00:00 19,1 15,6 17,0 25,9 22,0 10 5 24 13 ZZW 1015,3 13 0 0,6
23.07.2017 03:00:00 20,6 15,4 20,1 26,2 22,0 9 5 29 16 W 1015,0 60 0 0,0
23.07.2017 02:00:00 20,6 14,9 19,9 26,5 22,1 17 9 31 17 W 1014,8 60 0 0,0
23.07.2017 01:00:00 22,1 14,7 20,9 26,8 22,0 21 12 29 16 WNW 1014,3 60 0 0,0
23.07.2017 00:00:00 21,6 16,1 21,0 27,1 22,0 11 6 24 13 Z 1013,7 60 0 0,0
22.07.2017 23:00:00 22,2 15,8 21,8 27,4 22,0 19 10 33 18 ZZW 1013,2 60 0 0,0
22.07.2017 22:00:00 22,5 15,8 22,0 27,6 22,0 16 9 30 16 Z 1012,0 60 0 0,0
22.07.2017 21:00:00 24,6 15,2 24,1 27,7 22,0 16 9 31 17 Z 1011,7 60 0 0,0
22.07.2017 20:00:00 26,5 17,0 26,4 27,7 22,0 17 9 35 19 Z 1011,8 59 23 0,0
22.07.2017 19:00:00 27,4 16,1 27,6 27,5 22,0 19 10 29 16 Z 1011,9 50 18 0,0
22.07.2017 18:00:00 29,1 14,1 30,2 27,2 22,0 13 7 32 17 Z 1011,5 15 52 0,0
22.07.2017 17:00:00 28,7 17,2 31,6 26,7 22,0 13 7 32 17 Z 1011,7 48 58 0,0
22.07.2017 16:00:00 28,5 17,4 32,0 26,1 22,0 16 8 29 16 Z 1012,0 45 60 0,0
22.07.2017 15:00:00 27,5 17,9 28,9 25,6 22,0 9 5 18 10 ZZO 1012,7 49 45 0,0
22.07.2017 14:00:00 26,4 17,7 27,5 25,2 22,0 9 5 24 13 ZZO 1013,1 59 47 0,0
22.07.2017 13:00:00 25,6 17,3 27,9 24,8 22,0 9 5 21 12 ZW 1013,4 20 16 0,0
22.07.2017 12:00:00 24,9 18,6 28,2 24,4 22,0 6 3 18 10 Z 1013,6 51 45 0,0
22.07.2017 11:00:00 24,1 18,1 28,2 24,2 22,0 10 5 17 9 Z 1013,9 43 60 0,0
22.07.2017 10:00:00 22,2 18,2 24,6 24,2 22,0 12 7 23 12 Z 1014,0 45 51 0,0
22.07.2017 09:00:00 21,3 18,1 23,0 24,3 22,0 13 7 19 10 Z 1013,8 54 58 0,0
22.07.2017 08:00:00 19,1 17,6 18,6 24,5 22,0 9 5 14 8 Z 1013,6 13 40 0,0
22.07.2017 07:00:00 18,0 17,2 17,0 24,7 22,0 8 4 14 8 ZZW 1013,5 13 1 0,0
22.07.2017 06:00:00 17,4 16,6 17,0 25,0 22,0 5 3 12 6 Z 1013,2 9 0 0,0
22.07.2017 05:00:00 17,8 17,0 17,3 25,2 22,0 7 4 13 7 Z 1012,8 7 0 2,7
22.07.2017 04:00:00 17,7 16,7 17,4 25,5 22,0 3 2 11 6 ZZW 1012,8 10 0 0,0
22.07.2017 03:00:00 18,0 16,8 17,7 25,8 22,0 6 4 14 8 Z 1012,7 20 0 0,0
22.07.2017 02:00:00 18,1 16,9 17,7 26,1 22,0 6 3 18 10 ZZO 1012,6 20 0 0,0
22.07.2017 01:00:00 18,2 17,0 17,8 26,5 22,0 12 6 22 12 Z 1012,6 46 0 0,0
22.07.2017 00:00:00 17,9 16,9 17,3 26,8 22,0 2 1 22 12 Z 1012,8 43 0 0,0
21.07.2017 23:00:00 17,9 17,1 17,3 27,4 22,0 9 5 22 12 ZZW 1012,2 16 0 0,2
21.07.2017 22:00:00 18,4 17,1 17,4 28,0 22,0 10 6 47 25 ZO 1011,6 8 0 18,4
21.07.2017 21:00:00 19,1 16,9 17,9 28,3 22,0 44 24 79 43 Z 1011,3 6 0 0,4
21.07.2017 20:00:00 26,8 17,3 26,1 28,2 22,0 5 3 20 11 NNW 1009,4 58 0 0,0
21.07.2017 19:00:00 28,8 16,7 29,2 27,9 22,0 7 4 20 11 NO 1009,1 27 31 0,0
21.07.2017 18:00:00 29,9 16,0 34,2 27,4 22,0 10 5 22 12 N 1008,9 39 60 0,0
21.07.2017 17:00:00 29,4 16,6 34,4 26,8 22,0 12 7 24 13 NO 1009,4 36 60 0,0
21.07.2017 16:00:00 28,7 16,9 34,2 26,0 22,0 11 6 31 17 NO 1010,3 56 60 0,0
21.07.2017 15:00:00 28,5 15,8 33,7 25,3 22,0 10 6 26 14 N 1011,1 31 60 0,0
21.07.2017 14:00:00 27,5 16,1 32,4 24,6 22,0 5 3 25 14 NNW 1011,8 51 60 0,0
21.07.2017 13:00:00 26,3 15,0 31,8 24,1 22,0 11 6 21 12 NNO 1012,5 29 60 0,0
21.07.2017 12:00:00 25,2 14,3 27,1 23,8 22,0 9 5 20 11 NNO 1013,2 49 42 0,0
21.07.2017 11:00:00 23,9 14,9 26,4 23,6 22,0 11 6 19 10 N 1013,9 46 44 0,0
21.07.2017 10:00:00 21,3 14,5 23,7 23,5 22,0 6 3 13 7 N 1014,6 58 35 0,0
21.07.2017 09:00:00 19,5 14,3 19,7 23,6 22,0 5 3 10 5 NO 1014,8 59 13 0,0
21.07.2017 08:00:00 17,8 14,3 16,9 23,8 22,0 2 1 6 4 N 1014,7 60 5 0,0
21.07.2017 07:00:00 16,4 13,9 16,1 24,0 22,0 3 1 7 4 N 1014,8 51 0 0,0
21.07.2017 06:00:00 16,4 14,8 15,8 24,2 21,9 2 1 7 4 N 1015,1 54 0 0,0
21.07.2017 05:00:00 16,4 14,9 15,5 24,5 21,9 0 0 5 3 N 1014,9 44 0 0,0
21.07.2017 04:00:00 16,9 15,6 15,2 24,7 21,9 5 3 11 6 N 1014,8 43 0 0,0
21.07.2017 03:00:00 16,6 15,3 15,2 25,0 21,9 4 2 8 5 ZZO 1015,0 42 0 0,0
21.07.2017 02:00:00 16,9 15,4 15,6 25,3 21,9 4 2 11 6 Z 1014,8 27 0 0,0
21.07.2017 01:00:00 17,8 15,8 16,2 25,5 21,9 8 4 10 5 WZW 1014,7 39 0 0,0
21.07.2017 00:00:00 19,9 16,7 19,0 25,8 21,9 7 4 18 10 ZW 1014,4 50 0 0,0
20.07.2017 23:00:00 21,5 17,1 18,2 26,0 21,9 11 6 19 11 ZW 1014,3 57 0 0,0
20.07.2017 22:00:00 20,2 16,2 18,6 26,2 21,8 4 2 16 9 ZZW 1013,9 2,9 0 0,0
20.07.2017 21:00:00 22,9 16,2 22,1 26,3 21,9 12 7 21 11 ZW 1012,8 60 25 0,0
20.07.2017 20:00:00 23,6 18,3 25,9 26,3 21,8 11 6 21 11 Z 1012,5 57 58 0,0
20.07.2017 19:00:00 24,0 18,0 24,1 26,3 21,8 13 7 21 11 ZZO 1012,1 56 37 0,0
20.07.2017 18:00:00 23,5 17,9 23,2 26,3 21,8 7 4 16 9 Z 1012,5 59 2 0,0
20.07.2017 17:00:00 23,4 18,3 18,3 26,5 21,8 13 7 26 14 W 1013,0 41 21 0,8
20.07.2017 16:00:00 19,4 16,6 17,2 26,5 21,8 14 7 73 40 ZZW 1013,4 21 1 15,0
20.07.2017 15:00:00 25,1 16,8 27,4 26,2 21,8 11 6 22 12 Z 1012,3 56 29 0,0
20.07.2017 14:00:00 25,0 18,0 24,5 26,1 21,8 11 6 23 12 ZO 1012,8 43 34 0,0
20.07.2017 13:00:00 22,2 17,8 20,9 26,1 21,7 6 4 21 11 ZZO 1013,5 60 0 0,0
20.07.2017 12:00:00 21,6 17,8 20,4 26,2 21,7 4 2 22 12 WZW 1013,5 31 0 0,0
20.07.2017 11:00:00 21,4 18,2 19,1 26,3 21,7 11 6 22 12 ZZW 1013,2 24 0 1,8
20.07.2017 10:00:00 22,0 16,7 19,9 26,5 21,7 13 7 29 16 Z 1012,6 43 6 0,0
20.07.2017 09:00:00 22,9 15,0 23,7 26,7 21,7 16 9 34 18 Z 1012,5 55 11 0,0
20.07.2017 08:00:00 22,4 15,0 21,9 27,0 21,7 17 9 29 16 Z 1012,0 59 2 0,0
20.07.2017 07:00:00 22,1 15,4 21,3 27,3 21,7 16 9 26 14 Z 1011,9 59 0 0,0
20.07.2017 06:00:00 22,5 14,9 20,4 27,6 21,7 16 9 34 19 Z 1011,6 60 0 0,0
20.07.2017 05:00:00 22,4 16,0 19,2 27,9 21,7 11 6 24 13 ZZW 1011,3 59 0 0,0
20.07.2017 04:00:00 21,4 16,6 18,6 28,2 21,6 9 5 21 11 Z 1011,0 59 0 0,6
20.07.2017 03:00:00 23,9 14,6 23,1 28,5 21,6 11 6 25 13 Z 1011,0 60 0 0,0
20.07.2017 02:00:00 24,1 14,5 23,3 28,8 21,6 7 4 19 11 ZZW 1010,7 60 0 0,0
20.07.2017 01:00:00 24,6 14,7 23,4 29,1 21,6 12 7 23 13 ZZW 1010,4 60 0 0,0
20.07.2017 00:00:00 24,7 13,9 22,9 29,4 21,6 11 6 21 12 Z 1010,1 60 0 0,0
19.07.2017 23:00:00 26,8 12,4 25,4 29,7 21,6 8 5 22 12 ZZW 1010,1 60 0 0,0
19.07.2017 22:00:00 27,4 12,2 24,9 29,9 21,6 13 7 18 10 ZW 1010,0 47 0 0,0
19.07.2017 21:00:00 28,7 13,8 27,9 29,9 21,6 15 8 21 11 ZW 1009,5 60 0 0,0
19.07.2017 20:00:00 31,7 13,5 32,5 29,8 21,5 13 7 23 12 ZZW 1008,9 50 58 0,0
19.07.2017 19:00:00 33,0 13,1 36,0 29,6 21,6 16 9 27 15 WNW 1008,9 51 56 0,0
19.07.2017 18:00:00 33,6 12,6 34,5 29,2 21,5 14 8 34 18 ZW 1008,7 53 30 0,0
19.07.2017 17:00:00 34,8 13,6 39,4 28,7 21,5 10 6 29 16 ZW 1009,3 11 60 0,0
19.07.2017 16:00:00 33,8 16,6 37,2 28,1 21,5 11 6 23 12 ZZW 1010,1 6 54 0,0
19.07.2017 15:00:00 32,9 15,0 38,8 27,5 21,5 10 6 23 12 Z 1010,3 4,9 60 0,0
19.07.2017 14:00:00 32,0 15,9 36,8 26,9 21,5 15 8 32 18 Z 1010,8 4,2 60 0,0
19.07.2017 13:00:00 31,0 16,6 34,4 26,5 21,4 16 8 29 15 Z 1011,1 4,6 50 0,0
19.07.2017 12:00:00 30,4 15,7 34,8 26,1 21,4 14 7 31 17 ZZO 1011,3 4,3 60 0,0
19.07.2017 11:00:00 28,7 17,2 32,6 26,0 21,4 13 7 26 14 Z 1012,1 3,2 60 0,0
19.07.2017 10:00:00 26,6 16,5 28,7 26,0 21,4 16 8 29 16 Z 1012,8 6 60 0,0
19.07.2017 09:00:00 24,9 16,1 25,9 26,1 21,4 17 9 29 16 ZZW 1013,2 13 60 0,0
19.07.2017 08:00:00 22,2 16,9 21,3 26,4 21,4 7 4 17 9 ZZW 1013,3 30 60 0,0
19.07.2017 07:00:00 19,0 16,6 16,1 26,7 21,4 6 3 9 5 ZZO 1013,2 24 28 0,0
19.07.2017 06:00:00 17,6 15,4 16,0 27,1 21,4 0 0 6 3 N 1013,4 24 0 0,0
19.07.2017 05:00:00 17,9 15,2 16,0 27,4 21,3 2 1 11 6 ZZO 1013,0 29 0 0,0
19.07.2017 04:00:00 18,9 16,1 16,9 27,8 21,4 8 4 11 6 ZW 1012,9 35 0 0,0
19.07.2017 03:00:00 19,4 16,1 17,6 28,2 21,4 2 1 11 6 ZW 1012,8 35 0 0,0
19.07.2017 02:00:00 21,1 16,3 18,9 28,5 21,3 10 5 13 7 WZW 1012,6 39 0 0,0
19.07.2017 01:00:00 24,0 16,0 19,7 28,9 21,3 10 5 18 10 WZW 1012,6 59 0 0,0
19.07.2017 00:00:00 22,7 16,0 20,3 29,2 21,4 5 3 14 7 ZO 1012,7 49 0 0,0
18.07.2017 23:00:00 24,7 15,6 21,6 29,4 21,3 6 3 22 12 NNO 1012,7 59 0 0,0
18.07.2017 22:00:00 - - - - - - - - - - - - - -
18.07.2017 21:00:00 29,3 15,8 28,0 29,6 21,3 10 6 18 10 NO 1012,4 58 44 0,0
18.07.2017 20:00:00 31,0 15,4 32,4 29,5 21,3 9 5 20 11 ONO 1012,1 50 60 0,0
18.07.2017 19:00:00 32,2 16,1 35,3 29,2 21,3 8 4 20 11 NO 1012,0 50 60 0,0
18.07.2017 18:00:00 33,7 13,2 37,8 28,7 21,3 6 3 24 13 ZZO 1012,3 37 60 0,0
18.07.2017 17:00:00 32,5 15,1 37,1 28,1 21,2 8 4 24 13 OZO 1013,0 36 60 0,0
18.07.2017 16:00:00 32,3 14,9 34,7 27,5 21,3 9 5 22 12 Z 1013,7 16 56 0,0
18.07.2017 15:00:00 32,6 14,7 38,1 26,8 21,3 9 5 21 12 ZZW 1014,3 26 60 0,0
18.07.2017 14:00:00 30,7 16,3 34,5 26,1 21,2 9 5 19 10 ZZO 1015,1 25 55 0,0
18.07.2017 13:00:00 30,1 16,1 34,6 25,6 21,3 9 5 21 11 ONO 1015,8 23 60 0,0
18.07.2017 12:00:00 28,5 16,4 33,8 25,2 21,2 8 4 22 12 NO 1016,5 20 60 0,0
18.07.2017 11:00:00 26,8 17,6 31,7 25,0 21,2 6 3 15 8 NNO 1017,1 21 60 0,0
18.07.2017 10:00:00 24,3 17,1 28,3 24,9 21,2 7 4 16 9 NNO 1017,5 19 60 0,0
18.07.2017 09:00:00 22,9 17,1 25,2 25,0 21,2 5 3 16 9 NNW 1017,9 20 60 0,0
18.07.2017 08:00:00 20,9 16,9 20,5 25,3 21,2 10 5 15 8 N 1018,2 13 60 0,0
18.07.2017 07:00:00 18,8 16,2 16,6 25,6 21,2 6 4 14 7 NNW 1018,5 17 33 0,0
18.07.2017 06:00:00 17,0 15,3 16,3 25,9 21,2 9 5 13 7 NW 1018,6 14 0 0,0
18.07.2017 05:00:00 17,4 15,6 16,7 26,3 21,2 9 5 15 8 NW 1018,4 15 0 0,0
18.07.2017 04:00:00 18,2 15,8 17,2 26,5 21,2 9 5 13 7 NNW 1018,3 19 0 0,0
18.07.2017 03:00:00 19,0 15,7 17,9 26,9 21,2 8 4 16 8 NW 1018,6 20 0 0,0
18.07.2017 02:00:00 20,8 16,0 19,9 27,2 21,2 8 4 18 10 N 1018,7 29 0 0,0
18.07.2017 01:00:00 22,3 15,9 21,6 27,5 21,2 12 7 27 14 NNO 1018,7 41 0 0,0
18.07.2017 00:00:00 23,4 15,7 22,7 27,8 21,2 17 9 29 16 NNO 1018,6 52 0 0,0
17.07.2017 23:00:00 24,7 15,3 - - - 21 11 31 17 NO 1018,5 55 - -
17.07.2017 22:00:00 25,0 15,6 - - - 18 10 29 16 NO 1018,3 60 - 0,0
17.07.2017 21:00:00 26,4 14,5 24,0 28,3 21,2 10 5 18 10 NO 1017,7 55 28 0,0
17.07.2017 20:00:00 28,5 14,0 29,5 28,1 21,2 11 6 24 13 NO 1017,7 50 60 0,0
17.07.2017 19:00:00 30,1 13,8 33,9 27,8 21,2 10 5 27 14 NNO 1017,5 13 60 0,0
17.07.2017 18:00:00 31,0 14,2 35,3 27,3 21,2 9 5 27 15 N 1017,8 19 60 0,0
17.07.2017 17:00:00 30,7 13,5 36,2 26,6 21,1 12 6 29 16 NNW 1018,4 26 60 0,0
17.07.2017 16:00:00 30,1 14,6 35,0 26,0 21,2 8 4 26 14 ONO 1018,9 42 60 0,0
17.07.2017 15:00:00 30,0 13,7 35,1 25,2 21,1 9 5 22 12 N 1019,5 18 60 0,0
17.07.2017 14:00:00 29,0 14,8 29,1 24,7 21,2 8 4 24 13 NW 1019,9 20 49 0,0
17.07.2017 13:00:00 27,3 15,0 30,6 24,0 21,2 6 3 18 10 ZZO 1020,3 18 57 0,0
17.07.2017 12:00:00 27,0 15,1 32,7 23,5 21,1 6 3 19 10 O 1020,7 51 60 0,0
17.07.2017 11:00:00 25,5 14,6 30,3 23,3 21,2 5 3 15 8 O 1021,1 28 60 0,0
17.07.2017 10:00:00 24,2 14,9 27,7 23,2 21,2 2 1 9 5 W 1021,5 49 60 0,0
17.07.2017 09:00:00 22,5 15,8 24,4 23,3 21,1 3 2 8 5 ZO 1021,7 47 60 0,0
17.07.2017 08:00:00 19,5 14,9 17,8 23,5 21,2 4 2 8 4 NO 1021,9 31 60 0,0

tt = temperatuur
td = dauwpunt
tt 5cm = temperatuur 5cm
tt -20cm = temperatuur -20cm
tt -100cm = temperatuur -100cm
ff = windsnelheid
fx = windstoten
dd = windrichting
ppp = luchtdruk
vv = zicht
sd = Zonneschijnduur
rr = neerslag

Weerstations in de omgeving